EW2542 Sandgate AU current weather conditions

sailwx.info

Wind from 226 at 3 knots gusting 10

Air temperature 16.7° C
Dewpoint 5.9° C

Last reported at 2020-Jul-14 03:02 UTC.
Time now 2020-Jul-14 04:05 UTC

Location: S 27°19' E 153°04'.
View on Google Maps.

See reports from other nearby stations

  
Tides and Currents Weather Stations Pressure Air Temp Water Temp Dewpoint Dewpoint Depression Visibility Wind Speed Wind Dir Waves Ship Positions
date/time (UTC)wind fromknots sea level pressurealtimeterstation pressurevisibilityair tempwater tempwave heightnotes
2020-Jul-14 03:02 226 3 gusting 10 16.7
2020-Jul-14 02:55 224 5 gusting 15 16.1
2020-Jul-14 02:48 213 5 gusting 15 16.1
2020-Jul-14 02:41 218 6 gusting 22 15.6
2020-Jul-14 02:34 220 7 gusting 22 15.6
2020-Jul-14 02:27 223 6 gusting 21 16.1
2020-Jul-14 02:20 219 5 gusting 17 16.1
2020-Jul-14 02:13 225 5 gusting 17 16.1
2020-Jul-14 02:06 223 6 gusting 13 15.6
2020-Jul-14 01:59 224 6 gusting 15 15.6
2020-Jul-14 01:52 239 6 gusting 20 15.0
2020-Jul-14 01:45 227 8 gusting 20 15.0
2020-Jul-14 01:38 226 7 gusting 19 14.4
2020-Jul-14 01:31 226 6 gusting 18 14.4
2020-Jul-14 01:24 227 6 gusting 15 14.4
2020-Jul-14 01:17 234 6 gusting 16 14.4
2020-Jul-14 01:10 242 6 gusting 16 14.4
2020-Jul-14 01:03 234 6 gusting 19 14.4
2020-Jul-14 00:56 220 7 gusting 25 13.9
2020-Jul-14 00:49 219 6 gusting 19 13.9
2020-Jul-14 00:42 226 6 gusting 23 13.9
2020-Jul-14 00:35 232 4 gusting 19 13.9
2020-Jul-14 00:28 230 6 gusting 16 13.9
2020-Jul-14 00:21 223 6 gusting 18 13.3
2020-Jul-14 00:14 239 5 gusting 17 13.3
2020-Jul-14 00:07 236 6 gusting 19 13.3
2020-Jul-14 00:00 225 5 gusting 19 13.3
2020-Jul-13 23:53 233 5 gusting 13 13.3
2020-Jul-13 23:39 233 4 gusting 17 13.3
2020-Jul-13 23:32 243 5 gusting 17 12.8
2020-Jul-13 23:25 235 5 gusting 15 12.8
2020-Jul-13 23:18 240 5 gusting 15 12.8
2020-Jul-13 23:11 246 4 gusting 12 12.2
2020-Jul-13 23:04 246 4 gusting 14 12.2
2020-Jul-13 22:57 264 3 gusting 10 12.2
2020-Jul-13 22:50 257 2 gusting 8 12.2
2020-Jul-13 22:43 227 3 gusting 12 11.7
2020-Jul-13 22:36 228 3 gusting 11 11.7
2020-Jul-13 22:29 232 3 gusting 10 11.1
2020-Jul-13 22:22 221 3 gusting 13 11.1
2020-Jul-13 22:15 245 4 gusting 13 11.1
2020-Jul-13 22:08 263 3 gusting 13 11.1
2020-Jul-13 22:03 256 5 gusting 13 10.6
2020-Jul-13 21:47 239 4 gusting 14 10.6
2020-Jul-13 21:40 230 3 gusting 11 10.0
2020-Jul-13 21:33 234 3 gusting 12 10.0
2020-Jul-13 21:26 257 3 gusting 13 10.0
2020-Jul-13 21:19 242 3 gusting 13 10.0
2020-Jul-13 21:12 233 3 gusting 13 10.0
2020-Jul-13 21:05 240 3 gusting 10 10.0
2020-Jul-13 20:58 263 3 gusting 13 9.4
2020-Jul-13 20:51 266 3 gusting 13 9.4
2020-Jul-13 20:44 260 3 gusting 9 9.4
2020-Jul-13 20:37 267 3 gusting 12 10.0
2020-Jul-13 20:30 286 2 gusting 9 10.0
2020-Jul-13 20:23 288 2 gusting 9 10.0
2020-Jul-13 20:16 301 1 gusting 8 9.4
2020-Jul-13 20:09 289 1 gusting 7 9.4
2020-Jul-13 20:02 287 2 gusting 8 9.4
2020-Jul-13 19:55 292 2 gusting 7 9.4
2020-Jul-13 19:48 304 1 gusting 7 10.0
2020-Jul-13 19:41 290 1 gusting 6 10.0
2020-Jul-13 19:34 292 1 gusting 6 10.0
2020-Jul-13 19:27 232 1 gusting 10 10.0
2020-Jul-13 19:20 250 1 gusting 6 10.0
2020-Jul-13 19:13 274 2 gusting 6 10.0
2020-Jul-13 19:06 264 1 gusting 8 10.0
2020-Jul-13 18:59 275 1 gusting 6 10.0
2020-Jul-13 18:52 262 1 gusting 11 10.0
2020-Jul-13 18:45 264 1 gusting 7 10.0
2020-Jul-13 18:38 257 2 gusting 6 10.6
2020-Jul-13 18:31 241 1 gusting 6 10.6
2020-Jul-13 18:24 236 2 gusting 10 10.6
2020-Jul-13 18:17 230 3 gusting 10 10.6
2020-Jul-13 18:10 235 3 gusting 10 10.6
2020-Jul-13 18:03 251 2 gusting 10 10.6
2020-Jul-13 17:56 235 1 gusting 5 10.6
2020-Jul-13 17:49 216 1 gusting 8 10.6
2020-Jul-13 17:42 226 1 gusting 8 10.6
2020-Jul-13 17:35 225 2 gusting 6 11.1
2020-Jul-13 17:28 227 2 gusting 8 11.1
2020-Jul-13 17:21 233 1 gusting 5 11.1
2020-Jul-13 17:14 220 2 gusting 12 11.1
2020-Jul-13 17:07 217 2 gusting 6 11.1
2020-Jul-13 17:00 234 2 gusting 7 11.1
2020-Jul-13 16:53 241 1 gusting 6 11.1
2020-Jul-13 16:46 236 1 gusting 6 11.1
2020-Jul-13 16:39 219 2 gusting 6 11.1
2020-Jul-13 16:32 221 2 gusting 8 11.1
2020-Jul-13 16:25 219 3 gusting 8 11.1
2020-Jul-13 16:18 217 2 gusting 7 11.7
2020-Jul-13 16:11 227 2 gusting 8 11.7
2020-Jul-13 16:04 227 3 gusting 10 11.7
2020-Jul-13 15:57 228 2 gusting 10 11.7
2020-Jul-13 15:50 236 2 gusting 8 11.7
2020-Jul-13 15:43 255 3 gusting 10 11.7
2020-Jul-13 15:36 256 3 gusting 12 11.7
2020-Jul-13 15:29 251 4 gusting 13 11.7
2020-Jul-13 15:22 246 2 gusting 10 11.7
2020-Jul-13 15:15 235 3 gusting 12 12.2
2020-Jul-13 15:08 221 2 gusting 11 12.2
2020-Jul-13 15:01 228 3 gusting 10 12.2
2020-Jul-13 14:54 231 3 gusting 9 12.2
2020-Jul-13 14:47 246 3 gusting 10 12.2
2020-Jul-13 14:40 231 3 gusting 11 12.2
2020-Jul-13 14:33 229 3 gusting 11 12.2
2020-Jul-13 14:26 231 2 gusting 7 12.2
2020-Jul-13 14:19 226 3 gusting 7 12.2
2020-Jul-13 14:12 222 2 gusting 9 12.2
2020-Jul-13 14:05 214 2 gusting 6 12.2
2020-Jul-13 13:58 212 2 gusting 6 12.2
2020-Jul-13 13:51 216 1 gusting 8 12.2
2020-Jul-13 13:44 223 1 gusting 6 12.2
2020-Jul-13 13:37 241 1 gusting 10 12.8
2020-Jul-13 13:30 230 2 gusting 10 12.2
2020-Jul-13 13:23 245 1 gusting 6 12.2
2020-Jul-13 13:16 232 1 gusting 6 12.2
2020-Jul-13 13:09 242 1 gusting 6 12.2
2020-Jul-13 13:02 266 0 gusting 6 12.2
2020-Jul-13 12:55 276 0 gusting 4 12.2
2020-Jul-13 12:48 273 1 gusting 6 12.2
2020-Jul-13 12:41 265 0 gusting 3 12.2
2020-Jul-13 12:34 222 0 gusting 2 12.2
2020-Jul-13 12:27 246 0 gusting 3 12.8
2020-Jul-13 12:20 248 0 gusting 3 12.8
2020-Jul-13 12:13 249 0 gusting 4 12.8
2020-Jul-13 12:06 222 0 gusting 4 12.8
2020-Jul-13 11:59 241 0 gusting 4 12.8
2020-Jul-13 11:52 257 0 gusting 4 12.8
2020-Jul-13 11:45 268 0 gusting 4 12.8
2020-Jul-13 11:38 234 0 gusting 4 12.2
2020-Jul-13 11:31 247 12.2
2020-Jul-13 11:24 267 12.2
2020-Jul-13 11:17 267 12.8
2020-Jul-13 11:10 272 12.8
2020-Jul-13 11:03 261 12.8
2020-Jul-13 10:56 179 12.8
2020-Jul-13 10:49 240 13.3
2020-Jul-13 10:42 237 0 gusting 4 13.3
2020-Jul-13 10:35 218 0 gusting 4 13.3
2020-Jul-13 10:28 225 0 gusting 4 13.9
2020-Jul-13 10:21 215 0 gusting 2 13.9
2020-Jul-13 10:14 210 0 gusting 2 13.9
2020-Jul-13 10:07 229 0 gusting 4 13.9
2020-Jul-13 10:00 258 0 gusting 4 14.4
2020-Jul-13 09:53 230 0 gusting 6 14.4
2020-Jul-13 09:46 241 1 gusting 6 14.4
2020-Jul-13 09:39 249 1 gusting 6 14.4
2020-Jul-13 09:32 259 1 gusting 7 14.4
2020-Jul-13 09:25 252 1 gusting 7 15.0
2020-Jul-13 09:18 254 1 gusting 6 15.0
2020-Jul-13 09:11 266 1 gusting 6 15.0
2020-Jul-13 09:04 251 0 gusting 5 15.0
2020-Jul-13 08:57 266 1 gusting 6 15.0
2020-Jul-13 08:50 265 1 gusting 6 15.0
2020-Jul-13 08:43 266 0 gusting 6 14.4
2020-Jul-13 08:36 273 13.9
2020-Jul-13 08:29 249 14.4
2020-Jul-13 08:22 14.4
2020-Jul-13 08:15 14.4
2020-Jul-13 08:08 249 15.0
2020-Jul-13 08:01 249 15.0
2020-Jul-13 07:54 249 15.6
2020-Jul-13 07:47 249 15.6
2020-Jul-13 07:40 250 16.1
2020-Jul-13 07:33 249 16.7
2020-Jul-13 07:26 258 0 gusting 6 16.7
2020-Jul-13 07:19 235 1 gusting 7 16.7
2020-Jul-13 07:12 231 1 gusting 6 17.2
2020-Jul-13 07:05 216 0 gusting 6 17.2
2020-Jul-13 06:58 217 2 gusting 8 17.8
2020-Jul-13 06:51 221 2 gusting 9 17.8
2020-Jul-13 06:44 225 2 gusting 8 17.8
2020-Jul-13 06:37 225 1 gusting 9 17.8
2020-Jul-13 06:30 232 2 gusting 9 18.3
2020-Jul-13 06:23 242 2 gusting 9 18.3
2020-Jul-13 06:16 222 1 gusting 7 18.9
2020-Jul-13 06:09 210 1 gusting 6 18.9
2020-Jul-13 06:02 204 1 gusting 6 18.9
2020-Jul-13 05:55 209 2 gusting 6 18.9
2020-Jul-13 05:48 212 2 gusting 8 19.4
2020-Jul-13 05:41 256 2 gusting 9 19.4
2020-Jul-13 05:34 275 1 gusting 9 20.0
2020-Jul-13 05:27 235 1 gusting 6 20.0
2020-Jul-13 05:20 238 1 gusting 6 20.0
2020-Jul-13 05:13 216 1 gusting 9 20.0
2020-Jul-13 05:06 210 2 gusting 10 20.0
2020-Jul-13 04:59 210 1 gusting 5 20.0
2020-Jul-13 04:52 207 2 gusting 7 19.4
2020-Jul-13 04:45 208 2 gusting 8 19.4
2020-Jul-13 04:38 229 1 gusting 6 19.4
2020-Jul-13 04:31 246 2 gusting 9 19.4
2020-Jul-13 04:24 222 3 gusting 9 20.0
2020-Jul-13 04:17 228 4 gusting 9 20.0
2020-Jul-13 04:10 222 3 gusting 10 20.0
2020-Jul-13 04:03 224 3 gusting 10 19.4
2020-Jul-13 03:56 213 2 gusting 8 19.4
2020-Jul-13 03:49 228 2 gusting 9 18.9
2020-Jul-13 03:42 227 2 gusting 9 18.9
2020-Jul-13 03:35 229 1 gusting 7 19.4
2020-Jul-13 03:28 230 2 gusting 6 19.4
2020-Jul-13 03:21 225 2 gusting 7 20.0
2020-Jul-13 03:14 216 2 gusting 7 19.4
2020-Jul-13 03:07 225 3 gusting 8 19.4
2020-Jul-13 03:00 244 2 gusting 9 18.9
2020-Jul-13 02:53 231 2 gusting 9 18.9
2020-Jul-13 02:46 238 3 gusting 10 19.4
2020-Jul-13 02:39 223 3 gusting 10 19.4
2020-Jul-13 02:32 217 2 gusting 9 19.4
2020-Jul-13 02:25 212 2 gusting 9 19.4
2020-Jul-13 02:18 223 1 gusting 7 19.4
2020-Jul-13 02:11 244 2 gusting 10 19.4
2020-Jul-13 02:04 204 0 gusting 5 19.4
2020-Jul-13 01:57 219 1 gusting 7 19.4
2020-Jul-13 01:50 211 2 gusting 6 19.4
2020-Jul-13 01:43 208 2 gusting 8 18.9
2020-Jul-13 01:36 205 2 gusting 8 18.9
2020-Jul-13 01:29 198 2 gusting 6 18.9
2020-Jul-13 01:22 191 2 gusting 6 17.8
2020-Jul-13 01:15 202 2 gusting 5 17.8
2020-Jul-13 01:08 215 1 gusting 5 17.8
2020-Jul-13 01:01 204 2 gusting 6 17.2
2020-Jul-13 00:54 217 1 gusting 6 17.2
2020-Jul-13 00:47 261 1 gusting 4 16.7
2020-Jul-13 00:40 204 0 gusting 5 16.7
2020-Jul-13 00:33 213 1 gusting 5 16.1
2020-Jul-13 00:26 215 1 gusting 5 15.6
2020-Jul-13 00:19 208 0 gusting 5 15.6
2020-Jul-13 00:12 209 0 gusting 2 15.6
2020-Jul-13 00:05 206 0 gusting 5 15.0
2020-Jul-12 23:58 217 0 gusting 5 15.0
2020-Jul-12 23:51 217 1 gusting 5 14.4
2020-Jul-12 23:44 212 1 gusting 5 14.4
2020-Jul-12 23:37 216 0 gusting 4 14.4
2020-Jul-12 23:30 218 0 gusting 3 14.4
2020-Jul-12 23:23 256 0 gusting 3 13.9
2020-Jul-12 23:16 261 0 gusting 2 13.9
2020-Jul-12 23:09 262 13.9
2020-Jul-12 23:02 259 13.9
2020-Jul-12 22:55 227 0 gusting 3 13.3
2020-Jul-12 22:48 241 0 gusting 3 13.3
2020-Jul-12 22:41 268 13.3
2020-Jul-12 22:34 276 13.3
2020-Jul-12 22:27 276 13.3
2020-Jul-12 22:20 277 13.3
2020-Jul-12 22:13 278 13.3
2020-Jul-12 22:06 279 13.3
2020-Jul-12 21:59 257 13.3
2020-Jul-12 21:52 244 13.3
2020-Jul-12 21:45 232 13.3
2020-Jul-12 21:38 232 13.3
2020-Jul-12 21:31 13.3
2020-Jul-12 21:24 12.8
2020-Jul-12 21:17 12.8
2020-Jul-12 21:10 12.8
2020-Jul-12 21:03 13.3
2020-Jul-12 20:56 13.3
2020-Jul-12 20:49 13.3
2020-Jul-12 20:42 232 13.3
2020-Jul-12 20:35 232 13.3
2020-Jul-12 20:28 13.3
2020-Jul-12 20:21 218 13.3
2020-Jul-12 20:14 13.3
2020-Jul-12 20:07 218 13.3
2020-Jul-12 20:00 217 13.9
2020-Jul-12 19:53 13.9
2020-Jul-12 19:46 217 13.9
2020-Jul-12 19:39 217 13.9
2020-Jul-12 19:32 216 13.9
2020-Jul-12 19:25 13.9
2020-Jul-12 19:18 213 13.9
2020-Jul-12 19:11 14.4
2020-Jul-12 19:04 14.4
2020-Jul-12 18:57 14.4
2020-Jul-12 18:50 14.4
2020-Jul-12 18:43 13.9
2020-Jul-12 18:36 13.9
2020-Jul-12 18:29 14.4
2020-Jul-12 18:22 13.9
2020-Jul-12 18:15 13.9
2020-Jul-12 18:08 14.4
2020-Jul-12 18:01 14.4
2020-Jul-12 17:54 14.4
2020-Jul-12 17:47 14.4
2020-Jul-12 17:40 14.4
2020-Jul-12 17:33 14.4
2020-Jul-12 17:26 14.4
2020-Jul-12 17:19 14.4
2020-Jul-12 17:12 225 14.4
2020-Jul-12 17:05 251 14.4
2020-Jul-12 16:58 321 14.4
2020-Jul-12 16:51 321 14.4
2020-Jul-12 16:44 14.4
2020-Jul-12 16:37 14.4
2020-Jul-12 16:30 14.4
2020-Jul-12 16:23 14.4
2020-Jul-12 16:16 14.4
2020-Jul-12 16:09 14.4
2020-Jul-12 16:02 14.4
2020-Jul-12 15:55 14.4
2020-Jul-12 15:48 14.4
2020-Jul-12 15:41 14.4
2020-Jul-12 15:34 14.4
2020-Jul-12 15:27 14.4
2020-Jul-12 15:20 14.4
2020-Jul-12 15:13 14.4
2020-Jul-12 15:06 14.4
2020-Jul-12 14:59 15.0
2020-Jul-12 14:52 15.0
2020-Jul-12 14:45 15.0
2020-Jul-12 14:38 15.0
2020-Jul-12 14:31 15.0
2020-Jul-12 14:24 15.0
2020-Jul-12 14:17 15.0
2020-Jul-12 14:10 321 15.0
2020-Jul-12 14:03 15.0
2020-Jul-12 13:56 321 15.0
2020-Jul-12 13:49 15.0
2020-Jul-12 13:42 15.0
2020-Jul-12 13:35 15.0
2020-Jul-12 13:28 15.0
2020-Jul-12 13:21 15.0
2020-Jul-12 13:14 15.0
2020-Jul-12 13:07 15.0
2020-Jul-12 13:00 15.0
2020-Jul-12 12:53 15.0
2020-Jul-12 12:46 15.0
2020-Jul-12 12:39 321 15.0
2020-Jul-12 12:32 321 15.0
2020-Jul-12 12:25 15.0
2020-Jul-12 12:18 321 15.0
2020-Jul-12 12:11 321 15.0
2020-Jul-12 12:04 321 15.0
2020-Jul-12 11:57 15.0
2020-Jul-12 11:50 15.0
2020-Jul-12 11:43 15.0
2020-Jul-12 11:36 15.0
2020-Jul-12 11:29 15.0
2020-Jul-12 11:22 15.0
2020-Jul-12 11:15 321 15.0
2020-Jul-12 11:08 321 15.0
2020-Jul-12 11:01 15.0
2020-Jul-12 10:54 321 15.0
2020-Jul-12 10:47 321 15.0
2020-Jul-12 10:40 15.0
2020-Jul-12 10:33 15.0
2020-Jul-12 10:26 15.0
2020-Jul-12 10:19 321 15.0
2020-Jul-12 10:12 321 15.0
2020-Jul-12 10:05 15.0
2020-Jul-12 09:58 15.0
2020-Jul-12 09:51 321 15.0
2020-Jul-12 09:44 282 0 gusting 2 15.6
2020-Jul-12 09:37 216 15.6
2020-Jul-12 09:30 216 15.6
2020-Jul-12 09:23 216 15.6
2020-Jul-12 09:16 15.6
2020-Jul-12 09:09 15.6
2020-Jul-12 09:02 15.6
2020-Jul-12 08:55 15.6
2020-Jul-12 08:48 216 15.6
2020-Jul-12 08:41 15.6
2020-Jul-12 08:34 15.6
2020-Jul-12 08:27 15.6
2020-Jul-12 08:20 216 15.6
2020-Jul-12 08:13 216 15.6
2020-Jul-12 08:06 15.6
2020-Jul-12 07:59 16.1
2020-Jul-12 07:52 16.1
2020-Jul-12 07:45 16.1
2020-Jul-12 07:38 16.1
2020-Jul-12 07:31 216 16.1
2020-Jul-12 07:24 216 16.1
2020-Jul-12 07:17 16.7
2020-Jul-12 07:10 16.7
2020-Jul-12 07:03 216 16.7
2020-Jul-12 06:56 216 0 gusting 4 17.2
2020-Jul-12 06:49 221 1 gusting 4 17.8
2020-Jul-12 06:42 252 0 gusting 3 17.8
2020-Jul-12 06:35 253 18.3
2020-Jul-12 06:28 253 0 gusting 2 18.3
2020-Jul-12 06:21 254 18.3
2020-Jul-12 06:14 254 18.3
2020-Jul-12 06:07 254 18.9
2020-Jul-12 06:00 254 18.9
2020-Jul-12 05:53 254 18.9
2020-Jul-12 05:46 254 18.9
2020-Jul-12 05:39 254 18.9
2020-Jul-12 05:32 236 0 gusting 2 18.9
2020-Jul-12 05:25 168 18.9
2020-Jul-12 05:18 177 0 gusting 2 18.9
2020-Jul-12 05:11 194 0 gusting 3 19.4
2020-Jul-12 05:04 198 0 gusting 3 19.4
2020-Jul-12 04:57 203 0 gusting 3 19.4
2020-Jul-12 04:50 207 1 gusting 4 19.4
2020-Jul-12 04:43 217 1 gusting 5 19.4
2020-Jul-12 04:36 233 0 gusting 4 19.4
2020-Jul-12 04:29 227 0 gusting 4 20.0
2020-Jul-12 04:22 217 1 gusting 6 20.0
2020-Jul-12 04:15 208 1 gusting 6 20.0
2020-Jul-12 04:08 218 2 gusting 8 20.0
2020-Jul-12 04:01 215 2 gusting 8 20.0